BREEZE-M R/B, 36102

Orbit data source: Space-Track

BREEZE-M R/B, 36102 is space debris in HEO originally from a launch on Tue, 24 Nov 2009 UTC launched from the Tyuratam Missile And Space Complex (TTMTR). Debris objects in space refer to the collection of defunct objects orbiting the Earth. Examples of debris include non-operational satellites, rocket bodies, and fragments generated from explosions, collisions, or faulty payload assembly.

Loading next visibility...
BREEZE-M R/B details
Identifier
36102, 2009-065B
Orbit
HEO
Last TLE update1 day ago
Origin
Flag of CISKhrunichev (CIS)
ManufacturerKhrunichev
MissionSpacecraft
Bus & MotorBRIZ, Unknown motor
Mass~1,600 kg wet, 1,600 kg dry
Launch date (UTC)
2009-11-24 (15 years ago)
Launch vehicleUnknown
Launch site
Tyuratam Missile And Space Complex (TTMTR)
Object type
Payload
Rocket body
Debris
Shape & HBRCyl, 4 m
Radar Cross Section14.451 m², Large (>1 m²)

Expand to show TLE details & history

TLE from 1 day ago
0 BREEZE-M R/B
1 36102U 09065B   24360.24140741 -.00000088  00000-0  00000-0 0  9997
2 36102  21.4700 326.6736 5869976  66.8326  14.0387  2.20876501121527
Epoch: 2024-12-25T05:47Z
Definitive object data (Epoch: 2024-12-25T05:47:37.6Z)
Latitude17.58159°
Longitude-87.89844°
Altitude6,050.965 km
Speed6.939 km/s
True Right ascension06h 12m 59s
True Declination17° 31' 30"
Sunlit
Object was in full shadow at TLE epoch
Visualization TLE readout
Latitude-20.80052°
Longitude70.58067°
Altitude24,385.436 km
Speed3.148 km/s
Apparent Right ascension17h 25m 38s
Apparent Declination-27° 13' 42"
Sunlit
Object is in daylight
Visualization observer readout
Local Sidereal Time10:49:45
Azimuth106.608° ESE
Elevation-23.573°
Doppler factor1
Orbital elements
Apogee altitude33,151.71 km
Perigee altitude3,909.164 km
Semi-major axis24,908.574 km
Eccentricity0.5869976
Inclination21.47°
RAAN326.6736°
Arg. of periapsis66.8326°
True anomaly58.2332°
Mean anomaly14.0387°
Eccentric anomaly31.72321°
Mean motion0.5521 °/min
BSTARUnknown
Orbital period652.05 mins
Loading maneuver chart data...
Loading historical data...
Loading historical data...
Loading historical data...
Loading historical data...
Loading historical data...
Loading historical data...
Loading historical data...
Other satellites on launch #65 in the year 2009 (2009-11-24 UTC)

BREEZE-M R/B Visibility forecast

Observer location: undefined°, undefined

Span
Click to sort rows by Start time (UTC) header in descending order
Start Az.
Max El. time (UTC)
Max El. Az.
Max El.
End time (UTC)
End Az.
42 mins2024-12-27 00:14:24.664Z225.535° WSW2024-12-27 00:41:24.664Z162.852° S29.454°2024-12-27 00:56:24.664Z102.965° ESE
|